status,avgMeasuredTime,avgSpeed,extID,medianMeasuredTime,TIMESTAMP,vehicleCount,_id,REPORT_ID
OK,104,39,897,104,2014-08-01T08:00:00,9,20746952,184649
OK,104,39,897,104,2014-08-01T08:05:00,5,20747401,184649
OK,101,41,897,101,2014-08-01T08:10:00,5,20747774,184649
OK,101,41,897,101,2014-08-01T08:15:00,5,20748223,184649
OK,108,38,897,108,2014-08-01T08:20:00,5,20748672,184649
OK,108,38,897,108,2014-08-01T08:25:00,5,20749121,184649
OK,87,47,897,87,2014-08-01T08:30:00,5,20749570,184649
OK,92,45,897,92,2014-08-01T08:35:00,7,20750019,184649
OK,107,38,897,107,2014-08-01T08:40:00,5,20750468,184649
OK,103,40,897,103,2014-08-01T08:45:00,12,20750917,184649
OK,106,39,897,106,2014-08-01T08:50:00,14,20751366,184649
OK,109,38,897,109,2014-08-01T08:55:00,8,20751815,184649
OK,107,38,897,107,2014-08-01T09:00:00,2,20752264,184649
OK,117,35,897,117,2014-08-01T09:05:00,5,20752713,184649
OK,91,45,897,91,2014-08-01T09:10:00,9,20753162,184649
OK,71,58,897,71,2014-08-01T09:20:00,3,20754060,184649
OK,107,38,897,107,2014-08-01T09:25:00,9,20754509,184649
OK,107,38,897,107,2014-08-01T09:30:00,11,20754958,184649
OK,106,39,897,106,2014-08-01T09:35:00,8,20755407,184649
OK,102,40,897,102,2014-08-01T09:40:00,6,20755856,184649
OK,136,30,897,136,2014-08-01T09:45:00,3,20756305,184649
OK,104,39,897,104,2014-08-01T09:50:00,8,20756754,184649
OK,95,43,897,95,2014-08-01T09:55:00,6,20757203,184649
OK,104,39,897,104,2014-08-01T10:00:00,3,20757652,184649
OK,109,38,897,109,2014-08-01T10:05:00,4,20758101,184649
OK,114,36,897,114,2014-08-01T10:10:00,5,20758550,184649
OK,118,35,897,118,2014-08-01T10:15:00,9,20758999,184649
OK,116,35,897,116,2014-08-01T10:20:00,8,20759448,184649
OK,99,41,897,99,2014-08-01T10:25:00,6,20759897,184649
OK,97,42,897,97,2014-08-01T10:30:00,5,20760346,184649
OK,108,38,897,108,2014-08-01T10:35:00,11,20760795,184649
OK,109,38,897,109,2014-08-01T10:40:00,8,20761244,184649
OK,108,38,897,108,2014-08-01T10:45:00,8,20761693,184649
OK,104,39,897,104,2014-08-01T10:50:00,10,20762142,184649
OK,97,42,897,97,2014-08-01T10:55:00,6,20762591,184649
OK,104,39,897,104,2014-08-01T11:00:00,6,20763040,184649
OK,104,39,897,104,2014-08-01T11:05:00,8,20763489,184649
OK,97,42,897,97,2014-08-01T11:10:00,9,20763938,184649
OK,102,40,897,102,2014-08-01T11:15:00,7,20764386,184649
OK,107,38,897,107,2014-08-01T11:20:00,3,20764835,184649
OK,115,36,897,115,2014-08-01T11:25:00,4,20765284,184649
OK,109,38,897,109,2014-08-01T11:30:00,7,20765733,184649
OK,103,40,897,103,2014-08-01T11:35:00,9,20766182,184649
OK,105,39,897,105,2014-08-01T11:40:00,6,20766631,184649
OK,108,38,897,108,2014-08-01T11:45:00,5,20767080,184649
OK,110,37,897,110,2014-08-01T11:50:00,7,20767529,184649
OK,122,33,897,122,2014-08-01T11:55:00,5,20767978,184649
OK,95,43,897,95,2014-08-01T12:00:00,8,20768427,184649
OK,89,46,897,89,2014-08-01T12:05:00,7,20768876,184649
OK,75,55,897,75,2014-08-01T12:10:00,5,20769325,184649
OK,75,55,897,75,2014-08-01T12:15:00,9,20769774,184649
OK,93,44,897,93,2014-08-01T12:20:00,8,20770223,184649
OK,75,55,897,75,2014-08-01T12:25:00,7,20770672,184649
OK,75,55,897,75,2014-08-01T12:30:00,7,20771121,184649
OK,75,55,897,75,2014-08-01T12:35:00,7,20771570,184649
OK,73,56,897,73,2014-08-01T12:40:00,8,20772019,184649
OK,74,55,897,74,2014-08-01T12:45:00,7,20772468,184649
OK,102,40,897,102,2014-08-01T12:50:00,9,20772917,184649
OK,114,36,897,114,2014-08-01T12:55:00,7,20773366,184649
OK,88,47,897,88,2014-08-01T13:00:00,8,20773815,184649
OK,69,60,897,69,2014-08-01T13:05:00,5,20774264,184649
OK,69,60,897,69,2014-08-01T13:10:00,5,20774713,184649
OK,75,55,897,75,2014-08-01T13:15:00,8,20775162,184649
OK,78,53,897,78,2014-08-01T13:20:00,7,20775611,184649
OK,87,47,897,87,2014-08-01T13:25:00,6,20776060,184649
OK,97,42,897,97,2014-08-01T13:30:00,5,20776509,184649
OK,97,42,897,97,2014-08-01T13:35:00,4,20776958,184649
OK,116,35,897,116,2014-08-01T13:40:00,6,20777407,184649
OK,118,35,897,118,2014-08-01T13:45:00,7,20777856,184649
OK,72,57,897,72,2014-08-01T13:50:00,9,20778305,184649
OK,70,59,897,70,2014-08-01T14:00:00,5,20779203,184649
OK,70,59,897,70,2014-08-01T14:05:00,5,20779652,184649
OK,72,57,897,72,2014-08-01T14:10:00,4,20780101,184649
OK,78,53,897,78,2014-08-01T14:15:00,5,20780550,184649
OK,71,58,897,71,2014-08-01T14:20:00,2,20780999,184649
OK,86,48,897,86,2014-08-01T14:25:00,3,20781448,184649
OK,91,45,897,91,2014-08-01T14:30:00,5,20781897,184649
OK,93,44,897,93,2014-08-01T14:35:00,2,20782346,184649
OK,76,54,897,76,2014-08-01T14:40:00,5,20782795,184649
OK,76,54,897,76,2014-08-01T14:45:00,7,20783244,184649
OK,98,42,897,98,2014-08-01T14:50:00,4,20783693,184649
OK,84,49,897,84,2014-08-01T14:55:00,5,20784142,184649
OK,84,49,897,84,2014-08-01T15:00:00,3,20784591,184649
OK,68,60,897,68,2014-08-01T15:05:00,1,20785040,184649
OK,68,60,897,68,2014-08-01T15:10:00,5,20785489,184649
OK,84,49,897,84,2014-08-01T15:15:00,6,20785938,184649
OK,83,49,897,83,2014-08-01T15:20:00,9,20786387,184649
OK,83,49,897,83,2014-08-01T15:25:00,6,20786836,184649
OK,71,58,897,71,2014-08-01T15:30:00,3,20787285,184649
OK,66,62,897,66,2014-08-01T15:35:00,5,20787734,184649
OK,66,62,897,66,2014-08-01T15:40:00,4,20788183,184649
OK,67,61,897,67,2014-08-01T15:45:00,5,20788632,184649
OK,104,39,897,104,2014-08-01T15:50:00,4,20789081,184649
OK,89,46,897,89,2014-08-01T15:55:00,2,20789530,184649
OK,85,48,897,85,2014-08-01T16:00:00,2,20789979,184649
OK,61,67,897,61,2014-08-01T16:05:00,3,20790428,184649
OK,103,40,897,103,2014-08-01T16:10:00,3,20790877,184649
OK,101,41,897,101,2014-08-01T16:15:00,4,20791326,184649
OK,101,41,897,101,2014-08-01T16:20:00,4,20791775,184649
OK,104,39,897,104,2014-08-01T16:25:00,2,20792224,184649
OK,104,39,897,104,2014-08-01T16:30:00,5,20792673,184649
OK,94,44,897,94,2014-08-01T16:35:00,2,20793122,184649
OK,73,56,897,73,2014-08-01T16:40:00,3,20793571,184649
OK,73,56,897,73,2014-08-01T16:45:00,3,20794020,184649
OK,96,43,897,96,2014-08-01T16:50:00,2,20794469,184649
OK,94,44,897,94,2014-08-01T16:55:00,6,20794918,184649
OK,84,49,897,84,2014-08-01T17:00:00,7,20795367,184649
OK,74,55,897,74,2014-08-01T17:05:00,6,20795816,184649
OK,108,38,897,108,2014-08-01T17:10:00,5,20796265,184649
OK,78,53,897,78,2014-08-01T17:15:00,5,20796714,184649
OK,80,51,897,80,2014-08-01T17:20:00,8,20797163,184649
OK,90,46,897,90,2014-08-01T17:25:00,4,20797612,184649
OK,101,41,897,101,2014-08-01T17:30:00,0,20798061,184649
OK,101,41,897,101,2014-08-01T17:35:00,0,20798510,184649
OK,62,66,897,62,2014-08-01T17:40:00,1,20798959,184649
OK,142,29,897,142,2014-08-01T17:45:00,1,20799408,184649
OK,142,29,897,142,2014-08-01T17:50:00,1,20799857,184649
OK,142,29,897,142,2014-08-01T17:55:00,0,20800306,184649
OK,142,29,897,142,2014-08-01T18:00:00,0,20800755,184649
OK,142,29,897,142,2014-08-01T18:05:00,0,20801204,184649
OK,142,29,897,142,2014-08-01T18:10:00,0,20801653,184649
OK,106,39,897,106,2014-08-01T18:15:00,1,20802102,184649
OK,80,51,897,80,2014-08-01T18:20:00,2,20802551,184649
OK,96,43,897,96,2014-08-01T18:25:00,1,20803000,184649
OK,96,43,897,96,2014-08-01T18:30:00,0,20803449,184649
OK,111,37,897,111,2014-08-01T18:35:00,1,20803898,184649
OK,122,33,897,122,2014-08-01T18:40:00,2,20804347,184649
OK,134,30,897,134,2014-08-01T18:45:00,1,20804796,184649
OK,102,40,897,102,2014-08-01T18:50:00,3,20805245,184649
OK,83,49,897,83,2014-08-01T18:55:00,4,20805694,184649
OK,63,65,897,63,2014-08-01T19:00:00,2,20806143,184649
OK,62,66,897,62,2014-08-01T19:05:00,3,20806592,184649
OK,84,49,897,84,2014-08-01T19:10:00,2,20807041,184649
OK,106,39,897,106,2014-08-01T19:15:00,0,20807490,184649
OK,58,71,897,58,2014-08-01T19:20:00,1,20807939,184649
OK,60,69,897,60,2014-08-01T19:25:00,3,20808388,184649
OK,73,56,897,73,2014-08-01T19:30:00,2,20808837,184649
OK,58,71,897,58,2014-08-01T19:35:00,1,20809286,184649
OK,116,35,897,116,2014-08-01T19:40:00,1,20809735,184649
OK,84,49,897,84,2014-08-01T19:45:00,2,20810184,184649
OK,115,36,897,115,2014-08-01T19:50:00,3,20810633,184649
OK,118,35,897,118,2014-08-01T19:55:00,1,20811082,184649
OK,118,35,897,118,2014-08-01T22:00:00,0,20816811,184649
OK,118,35,897,118,2014-08-01T22:05:00,0,20817260,184649
OK,64,64,897,64,2014-08-02T00:00:00,1,20823250,184649
OK,64,64,897,64,2014-08-02T00:05:00,1,20823699,184649
OK,64,64,897,64,2014-08-02T00:10:00,0,20824148,184649
OK,81,51,897,81,2014-08-02T00:15:00,1,20824597,184649
OK,81,51,897,81,2014-08-02T00:20:00,0,20825046,184649
OK,81,51,897,81,2014-08-02T00:25:00,0,20825495,184649
OK,81,51,897,81,2014-08-02T00:30:00,0,20825944,184649
OK,81,51,897,81,2014-08-02T00:35:00,0,20826393,184649
OK,81,51,897,81,2014-08-02T00:40:00,0,20826842,184649
OK,81,51,897,81,2014-08-02T00:45:00,0,20827291,184649
OK,81,51,897,81,2014-08-02T00:50:00,0,20827740,184649
OK,81,51,897,81,2014-08-02T00:55:00,0,20828189,184649
OK,66,62,897,66,2014-08-02T01:00:00,1,20828638,184649
OK,49,84,897,49,2014-08-02T01:05:00,1,20829087,184649
OK,56,73,897,56,2014-08-02T01:10:00,2,20829536,184649
OK,62,66,897,62,2014-08-02T01:15:00,2,20829985,184649
OK,56,73,897,56,2014-08-02T01:20:00,2,20830434,184649
OK,52,79,897,52,2014-08-02T01:25:00,0,20830883,184649
OK,63,65,897,63,2014-08-02T01:30:00,1,20831332,184649
OK,81,51,897,81,2014-08-02T01:35:00,2,20831781,184649
OK,68,60,897,68,2014-08-02T01:40:00,3,20832230,184649
OK,63,65,897,63,2014-08-02T01:45:00,1,20832679,184649
OK,63,65,897,63,2014-08-02T01:50:00,0,20833128,184649
OK,63,65,897,63,2014-08-02T01:55:00,0,20833577,184649
OK,46,90,897,46,2014-08-02T02:00:00,2,20834026,184649
OK,46,90,897,46,2014-08-02T02:05:00,2,20834475,184649
OK,46,90,897,46,2014-08-02T02:10:00,0,20834924,184649
OK,46,90,897,46,2014-08-02T02:15:00,0,20835373,184649
OK,46,90,897,46,2014-08-02T02:20:00,0,20835822,184649
OK,46,90,897,46,2014-08-02T02:25:00,0,20836271,184649
OK,46,90,897,46,2014-08-02T02:30:00,0,20836720,184649
OK,132,31,897,132,2014-08-02T02:35:00,1,20837169,184649
OK,132,31,897,132,2014-08-02T02:40:00,1,20837618,184649
OK,132,31,897,132,2014-08-02T02:45:00,0,20838067,184649
OK,132,31,897,132,2014-08-02T02:50:00,0,20838516,184649
OK,132,31,897,132,2014-08-02T02:55:00,0,20838965,184649
OK,132,31,897,132,2014-08-02T03:00:00,0,20839414,184649
OK,132,31,897,132,2014-08-02T03:05:00,0,20839863,184649
OK,132,31,897,132,2014-08-02T03:10:00,0,20840312,184649
OK,132,31,897,132,2014-08-02T03:15:00,0,20840761,184649
OK,132,31,897,132,2014-08-02T03:20:00,0,20841210,184649
OK,132,31,897,132,2014-08-02T03:25:00,0,20841659,184649
OK,132,31,897,132,2014-08-02T03:30:00,0,20842108,184649
OK,46,90,897,46,2014-08-02T03:35:00,1,20842557,184649
OK,46,90,897,46,2014-08-02T03:40:00,1,20843006,184649
OK,46,90,897,46,2014-08-02T03:45:00,0,20843455,184649
OK,46,90,897,46,2014-08-02T03:50:00,0,20843904,184649
OK,46,90,897,46,2014-08-02T03:55:00,0,20844353,184649
OK,89,46,897,89,2014-08-02T06:00:00,2,20851807,184649
OK,59,70,897,59,2014-08-02T06:05:00,0,20852256,184649
OK,59,70,897,59,2014-08-02T06:10:00,0,20852705,184649
OK,59,70,897,59,2014-08-02T06:15:00,0,20853154,184649
OK,59,70,897,59,2014-08-02T06:20:00,0,20853603,184649
OK,59,70,897,59,2014-08-02T06:25:00,0,20854052,184649
OK,64,64,897,64,2014-08-02T06:30:00,1,20854501,184649
OK,64,64,897,64,2014-08-02T06:35:00,1,20854950,184649
OK,63,65,897,63,2014-08-02T06:40:00,2,20855399,184649
OK,64,64,897,64,2014-08-02T06:45:00,1,20855848,184649
OK,64,64,897,64,2014-08-02T06:50:00,0,20856297,184649
OK,64,64,897,64,2014-08-02T06:55:00,0,20856746,184649
OK,64,64,897,64,2014-08-02T07:00:00,0,20857195,184649
OK,116,35,897,116,2014-08-02T07:05:00,3,20857644,184649
OK,106,39,897,106,2014-08-02T07:10:00,4,20858093,184649
OK,96,43,897,96,2014-08-02T07:15:00,0,20858542,184649
OK,91,45,897,91,2014-08-02T07:20:00,2,20858991,184649
OK,91,45,897,91,2014-08-02T07:25:00,2,20859440,184649
OK,113,36,897,113,2014-08-02T07:30:00,1,20859889,184649
OK,104,39,897,104,2014-08-02T07:35:00,6,20860338,184649
OK,100,41,897,100,2014-08-02T07:40:00,6,20860787,184649
OK,103,40,897,103,2014-08-02T07:45:00,3,20861236,184649
OK,89,46,897,89,2014-08-02T07:50:00,4,20861685,184649
OK,110,37,897,110,2014-08-02T07:55:00,4,20862134,184649
OK,119,34,897,119,2014-08-02T08:00:00,5,20862583,184649
OK,143,28,897,143,2014-08-02T08:05:00,2,20863032,184649
OK,101,41,897,101,2014-08-02T08:10:00,3,20863481,184649
OK,101,41,897,101,2014-08-02T08:15:00,2,20863930,184649
OK,102,40,897,102,2014-08-02T08:20:00,6,20864379,184649
OK,104,39,897,104,2014-08-02T08:25:00,8,20864828,184649
OK,98,42,897,98,2014-08-02T08:30:00,5,20865277,184649
OK,98,42,897,98,2014-08-02T08:35:00,3,20865726,184649
OK,63,65,897,63,2014-08-02T08:40:00,3,20866175,184649
OK,108,38,897,108,2014-08-02T08:45:00,4,20866624,184649
OK,110,37,897,110,2014-08-02T08:50:00,6,20867073,184649
OK,113,36,897,113,2014-08-02T08:55:00,3,20867522,184649
OK,127,32,897,127,2014-08-02T09:00:00,1,20867971,184649
OK,94,44,897,94,2014-08-02T09:05:00,2,20868420,184649
OK,61,67,897,61,2014-08-02T09:10:00,1,20868869,184649
OK,65,63,897,65,2014-08-02T09:15:00,1,20869318,184649
OK,61,67,897,61,2014-08-02T09:20:00,2,20869767,184649
OK,61,67,897,61,2014-08-02T09:25:00,2,20870216,184649
OK,61,67,897,61,2014-08-02T09:30:00,0,20870665,184649
OK,80,51,897,80,2014-08-02T09:35:00,2,20871114,184649
OK,61,67,897,61,2014-08-02T09:40:00,4,20871563,184649
OK,74,55,897,74,2014-08-02T09:45:00,3,20872012,184649
OK,73,56,897,73,2014-08-02T09:50:00,4,20872461,184649
OK,70,59,897,70,2014-08-02T09:55:00,4,20872910,184649
OK,72,57,897,72,2014-08-02T10:00:00,10,20873359,184649
OK,75,55,897,75,2014-08-02T10:05:00,9,20873808,184649
OK,108,38,897,108,2014-08-02T10:10:00,3,20874257,184649
OK,70,59,897,70,2014-08-02T10:15:00,5,20874706,184649
OK,72,57,897,72,2014-08-02T10:20:00,6,20875155,184649
OK,72,57,897,72,2014-08-02T10:25:00,4,20875604,184649
OK,64,64,897,64,2014-08-02T10:30:00,2,20876053,184649
OK,70,59,897,70,2014-08-02T10:35:00,3,20876502,184649
OK,69,60,897,69,2014-08-02T10:40:00,7,20876951,184649
OK,74,55,897,74,2014-08-02T10:45:00,7,20877400,184649
OK,94,44,897,94,2014-08-02T10:50:00,2,20877849,184649
OK,69,60,897,69,2014-08-02T10:55:00,1,20878298,184649
OK,69,60,897,69,2014-08-02T11:00:00,1,20878747,184649
OK,75,55,897,75,2014-08-02T11:05:00,1,20879196,184649
OK,75,55,897,75,2014-08-02T11:10:00,3,20879645,184649
OK,110,37,897,110,2014-08-02T11:15:00,1,20880094,184649
OK,84,49,897,84,2014-08-02T11:20:00,3,20880543,184649
OK,96,43,897,96,2014-08-02T11:25:00,3,20880992,184649
OK,96,43,897,96,2014-08-02T11:30:00,2,20881441,184649
OK,81,51,897,81,2014-08-02T11:35:00,4,20881890,184649
OK,70,59,897,70,2014-08-02T11:40:00,5,20882339,184649
OK,89,46,897,89,2014-08-02T11:45:00,2,20882788,184649
OK,68,60,897,68,2014-08-02T11:50:00,0,20883237,184649
OK,61,67,897,61,2014-08-02T11:55:00,1,20883686,184649
OK,61,67,897,61,2014-08-02T12:00:00,1,20884135,184649
OK,61,67,897,61,2014-08-02T12:05:00,0,20884584,184649
OK,61,67,897,61,2014-08-02T12:10:00,0,20885033,184649
OK,61,67,897,61,2014-08-02T12:15:00,0,20885482,184649
OK,84,49,897,84,2014-08-02T12:20:00,2,20885931,184649
OK,80,51,897,80,2014-08-02T12:25:00,4,20886380,184649
OK,92,45,897,92,2014-08-02T12:30:00,6,20886829,184649
OK,89,46,897,89,2014-08-02T12:35:00,7,20887278,184649
OK,118,35,897,118,2014-08-02T12:40:00,3,20887727,184649
OK,114,36,897,114,2014-08-02T12:45:00,2,20888176,184649
OK,141,29,897,141,2014-08-02T12:50:00,1,20888625,184649
OK,106,39,897,106,2014-08-02T12:55:00,2,20889074,184649
OK,106,39,897,106,2014-08-02T13:00:00,2,20889523,184649
OK,105,39,897,105,2014-08-02T13:05:00,0,20889972,184649
OK,113,36,897,113,2014-08-02T13:10:00,1,20890421,184649
OK,113,36,897,113,2014-08-02T13:15:00,1,20890870,184649
OK,77,53,897,77,2014-08-02T13:20:00,1,20891319,184649
OK,80,51,897,80,2014-08-02T13:25:00,2,20891768,184649
OK,64,64,897,64,2014-08-02T13:30:00,3,20892217,184649
OK,65,63,897,65,2014-08-02T13:35:00,0,20892666,184649
OK,106,39,897,106,2014-08-02T13:40:00,3,20893115,184649
OK,109,38,897,109,2014-08-02T13:45:00,4,20893564,184649
OK,85,48,897,85,2014-08-02T13:50:00,1,20894013,184649
OK,109,38,897,109,2014-08-02T13:55:00,1,20894462,184649
OK,88,47,897,88,2014-08-02T14:00:00,2,20894911,184649
OK,71,58,897,71,2014-08-02T14:05:00,3,20895360,184649
OK,104,39,897,104,2014-08-02T14:10:00,3,20895809,184649
OK,103,40,897,103,2014-08-02T14:15:00,4,20896258,184649
OK,88,47,897,88,2014-08-02T14:20:00,3,20896707,184649
OK,87,47,897,87,2014-08-02T14:25:00,3,20897156,184649
OK,87,47,897,87,2014-08-02T14:30:00,3,20897605,184649
OK,94,44,897,94,2014-08-02T14:35:00,2,20898054,184649
OK,83,49,897,83,2014-08-02T14:40:00,0,20898503,184649
OK,97,42,897,97,2014-08-02T14:45:00,1,20898952,184649
OK,96,43,897,96,2014-08-02T14:50:00,1,20899401,184649
OK,86,48,897,86,2014-08-02T14:55:00,3,20899850,184649
OK,86,48,897,86,2014-08-02T15:00:00,4,20900299,184649
OK,96,43,897,96,2014-08-02T15:05:00,2,20900748,184649
OK,100,41,897,100,2014-08-02T15:10:00,1,20901197,184649
OK,109,38,897,109,2014-08-02T15:15:00,1,20901646,184649
OK,109,38,897,109,2014-08-02T15:20:00,1,20902095,184649
OK,75,55,897,75,2014-08-02T15:25:00,2,20902544,184649
OK,91,45,897,91,2014-08-02T15:30:00,1,20902993,184649
OK,47,88,897,47,2014-08-02T15:35:00,1,20903442,184649
OK,60,69,897,60,2014-08-02T15:40:00,3,20903891,184649
OK,76,54,897,76,2014-08-02T15:45:00,2,20904340,184649
OK,73,56,897,73,2014-08-02T15:50:00,2,20904789,184649
OK,81,51,897,81,2014-08-02T15:55:00,2,20905238,184649
OK,81,51,897,81,2014-08-02T16:00:00,2,20905687,184649
OK,67,61,897,67,2014-08-02T16:05:00,0,20906136,184649
OK,103,40,897,103,2014-08-02T16:10:00,1,20906585,184649
OK,103,40,897,103,2014-08-02T16:15:00,1,20907034,184649
OK,63,65,897,63,2014-08-02T16:20:00,1,20907483,184649
OK,63,65,897,63,2014-08-02T16:25:00,1,20907932,184649
OK,82,50,897,82,2014-08-02T16:30:00,4,20908381,184649
OK,64,64,897,64,2014-08-02T16:35:00,5,20908830,184649
OK,59,70,897,59,2014-08-02T16:40:00,3,20909279,184649
OK,58,71,897,58,2014-08-02T16:45:00,2,20909728,184649
OK,59,70,897,59,2014-08-02T16:50:00,4,20910177,184649
OK,63,65,897,63,2014-08-02T16:55:00,3,20910626,184649
OK,60,69,897,60,2014-08-02T17:00:00,0,20911075,184649
OK,60,69,897,60,2014-08-02T17:05:00,0,20911524,184649
OK,60,69,897,60,2014-08-02T17:10:00,0,20911973,184649
OK,136,30,897,136,2014-08-02T17:15:00,1,20912422,184649
OK,99,41,897,99,2014-08-02T17:20:00,3,20912871,184649
OK,92,45,897,92,2014-08-02T17:25:00,2,20913320,184649
OK,68,60,897,68,2014-08-02T17:30:00,1,20913769,184649
OK,68,60,897,68,2014-08-02T17:35:00,1,20914218,184649
OK,110,37,897,110,2014-08-02T17:40:00,2,20914667,184649
OK,110,37,897,110,2014-08-02T17:45:00,2,20915116,184649
OK,114,36,897,114,2014-08-02T17:50:00,0,20915565,184649
OK,162,25,897,162,2014-08-02T17:55:00,1,20916014,184649
OK,81,51,897,81,2014-08-02T18:00:00,4,20916463,184649
OK,61,67,897,61,2014-08-02T18:05:00,3,20916912,184649
OK,61,67,897,61,2014-08-02T18:10:00,3,20917361,184649
OK,68,60,897,68,2014-08-02T18:15:00,3,20917810,184649
OK,95,43,897,95,2014-08-02T18:20:00,1,20918259,184649
OK,61,67,897,61,2014-08-02T18:25:00,1,20918708,184649
OK,54,76,897,54,2014-08-02T18:30:00,3,20919157,184649
OK,51,81,897,51,2014-08-02T18:35:00,2,20919606,184649
OK,85,48,897,85,2014-08-02T18:40:00,1,20920055,184649
OK,85,48,897,85,2014-08-02T18:45:00,1,20920504,184649
OK,85,48,897,85,2014-08-02T18:50:00,0,20920953,184649
OK,85,48,897,85,2014-08-02T18:55:00,0,20921402,184649
OK,54,76,897,54,2014-08-02T19:00:00,1,20921851,184649
OK,56,73,897,56,2014-08-02T19:05:00,2,20922300,184649
OK,72,57,897,72,2014-08-02T19:10:00,2,20922749,184649
OK,86,48,897,86,2014-08-02T19:15:00,0,20923198,184649
OK,69,60,897,69,2014-08-02T19:20:00,1,20923647,184649
OK,64,64,897,64,2014-08-02T19:25:00,2,20924096,184649
OK,60,69,897,60,2014-08-02T19:30:00,0,20924545,184649
OK,60,69,897,60,2014-08-02T19:35:00,0,20924994,184649
OK,60,69,897,60,2014-08-02T19:40:00,0,20925443,184649
OK,60,69,897,60,2014-08-02T19:45:00,0,20925892,184649
OK,103,40,897,103,2014-08-02T19:50:00,2,20926341,184649
OK,103,40,897,103,2014-08-02T19:55:00,2,20926790,184649
OK,54,76,897,54,2014-08-02T20:00:00,1,20927239,184649
OK,54,76,897,54,2014-08-02T20:05:00,1,20927688,184649
OK,54,76,897,54,2014-08-02T20:10:00,0,20928137,184649
OK,54,76,897,54,2014-08-02T20:15:00,0,20928586,184649
OK,54,76,897,54,2014-08-02T20:20:00,0,20929035,184649
OK,87,47,897,87,2014-08-02T20:25:00,1,20929484,184649
OK,87,47,897,87,2014-08-02T20:30:00,1,20929933,184649
OK,52,79,897,52,2014-08-02T20:35:00,1,20930382,184649
OK,113,36,897,113,2014-08-02T20:40:00,2,20930831,184649
OK,175,23,897,175,2014-08-02T20:45:00,1,20931280,184649
OK,54,76,897,54,2014-08-02T20:50:00,1,20931729,184649
OK,81,51,897,81,2014-08-02T20:55:00,2,20932178,184649
OK,109,38,897,109,2014-08-02T21:00:00,0,20932627,184649
OK,66,62,897,66,2014-08-02T21:05:00,3,20933076,184649
OK,63,65,897,63,2014-08-02T21:10:00,4,20933525,184649
OK,59,70,897,59,2014-08-02T21:15:00,0,20933974,184649
OK,59,70,897,59,2014-08-02T21:20:00,0,20934423,184649
OK,59,70,897,59,2014-08-02T21:25:00,0,20934872,184649
OK,59,70,897,59,2014-08-02T21:30:00,0,20935321,184649
OK,59,70,897,59,2014-08-02T21:35:00,0,20935770,184649
OK,59,70,897,59,2014-08-02T21:40:00,0,20936219,184649
OK,71,58,897,71,2014-08-02T21:45:00,0,20936668,184649
OK,71,58,897,71,2014-08-02T21:50:00,0,20937117,184649
OK,71,58,897,71,2014-08-02T21:55:00,0,20937566,184649
OK,71,58,897,71,2014-08-02T22:00:00,0,20938015,184649
OK,71,58,897,71,2014-08-02T22:05:00,0,20938464,184649
OK,71,58,897,71,2014-08-02T22:10:00,0,20938913,184649
OK,71,58,897,71,2014-08-02T22:15:00,0,20939362,184649
OK,71,58,897,71,2014-08-02T22:20:00,0,20939811,184649
OK,88,47,897,88,2014-08-02T22:25:00,1,20940260,184649
OK,61,67,897,61,2014-08-02T22:30:00,1,20940709,184649
OK,59,70,897,59,2014-08-02T22:35:00,2,20941158,184649
OK,57,72,897,57,2014-08-02T22:40:00,3,20941607,184649
OK,55,75,897,55,2014-08-02T22:45:00,0,20942056,184649
OK,55,75,897,55,2014-08-02T22:50:00,0,20942505,184649
OK,55,75,897,55,2014-08-02T22:55:00,0,20942954,184649
OK,64,64,897,64,2014-08-02T23:00:00,1,20943403,184649
OK,64,64,897,64,2014-08-02T23:10:00,0,20943852,184649
OK,64,64,897,64,2014-08-02T23:15:00,0,20944301,184649
OK,64,64,897,64,2014-08-02T23:20:00,0,20944750,184649
OK,61,67,897,61,2014-08-02T23:25:00,1,20945199,184649
OK,61,67,897,61,2014-08-02T23:30:00,1,20945648,184649
OK,57,72,897,57,2014-08-02T23:35:00,2,20946097,184649
OK,57,72,897,57,2014-08-02T23:40:00,2,20946546,184649
OK,57,72,897,57,2014-08-02T23:45:00,0,20946995,184649
OK,57,72,897,57,2014-08-02T23:50:00,0,20947444,184649
OK,57,72,897,57,2014-08-02T23:55:00,0,20947893,184649
OK,57,72,897,57,2014-08-03T00:00:00,0,20948342,184649
OK,57,72,897,57,2014-08-03T00:05:00,0,20948791,184649
OK,57,72,897,57,2014-08-03T00:10:00,0,20949239,184649
OK,57,72,897,57,2014-08-03T00:15:00,0,20949688,184649
OK,57,72,897,57,2014-08-03T00:20:00,0,20950137,184649
OK,57,72,897,57,2014-08-03T00:25:00,0,20950586,184649
OK,57,72,897,57,2014-08-03T00:30:00,0,20951035,184649
OK,57,72,897,57,2014-08-03T00:35:00,0,20951484,184649
OK,57,72,897,57,2014-08-03T00:40:00,0,20951933,184649
OK,74,55,897,74,2014-08-03T00:45:00,1,20952382,184649
OK,68,60,897,68,2014-08-03T00:50:00,2,20952831,184649
OK,63,65,897,63,2014-08-03T00:55:00,0,20953280,184649
OK,63,65,897,63,2014-08-03T01:00:00,0,20953729,184649
OK,63,65,897,63,2014-08-03T01:05:00,0,20954178,184649
OK,63,65,897,63,2014-08-03T01:10:00,0,20954627,184649
OK,63,65,897,63,2014-08-03T01:15:00,0,20955076,184649
OK,63,65,897,63,2014-08-03T01:20:00,0,20955525,184649
OK,76,54,897,76,2014-08-03T01:25:00,1,20955974,184649
OK,90,46,897,90,2014-08-03T01:30:00,1,20956423,184649
OK,86,48,897,86,2014-08-03T01:35:00,3,20956872,184649
OK,86,48,897,86,2014-08-03T01:40:00,1,20957321,184649
OK,73,56,897,73,2014-08-03T01:45:00,2,20957770,184649